FW9002 Weather Reports


time (UTC)temp
C
wind
direction
speed
KPH
gust
KPH
rain 1hr
cm
rain 24hr
cm
rain mn
cm
humidity
%
barometer
mb
20260905061522 28 116 0.0 0.0 0.00 0.00 0.00 52 1014.0
20260905061021 28 187 3.2 3.2 0.00 0.00 0.00 51 1013.9
20260905060517 28 182 3.2 3.2 0.00 0.00 0.00 51 1014.0
20260905060013 28 183 0.0 0.0 0.00 0.00 0.00 51 1014.0
20260905055511 28 157 1.6 1.6 0.00 0.00 0.00 51 1014.1
20260905055006 28 170 3.2 3.2 0.00 0.00 0.00 51 1014.0
20260905054502 28 152 1.6 1.6 0.00 0.00 0.00 51 1013.8
20260905053957 28 134 1.6 1.6 0.00 0.00 0.00 51 1014.0
20260905053451 28 148 1.6 1.6 0.00 0.00 0.00 51 1013.8
20260905052948 28 150 0.0 0.0 0.00 0.00 0.00 51 1013.9
20260905052447 28 138 1.6 1.6 0.00 0.00 0.00 51 1013.6
20260905051946 28 145 0.0 0.0 0.00 0.00 0.00 51 1013.8
20260905051441 28 129 0.0 0.0 0.00 0.00 0.00 51 1013.6
20260905050939 28 127 0.0 0.0 0.00 0.00 0.00 51 1013.8
20260905050435 28 126 1.6 1.6 0.00 0.00 0.00 51 1013.8
20260905045930 28 114 1.6 1.6 0.00 0.00 0.00 50 1013.5
20260905045425 28 115 0.0 0.0 0.00 0.00 0.00 49 1013.4
20260905044921 28 115 0.0 0.0 0.00 0.00 0.00 48 1013.3
20260905044410 28 121 0.0 0.0 0.00 0.00 0.00 47 1013.3
20260905043909 28 121 0.0 0.0 0.00 0.00 0.00 46 1013.5
20260905043404 29 121 0.0 0.0 0.00 0.00 0.00 45 1013.2
20260905042903 29 234 1.6 1.6 0.00 0.00 0.00 44 1013.4
20260905042358 29 234 0.0 0.0 0.00 0.00 0.00 44 1013.5
20260905041853 29 234 0.0 0.0 0.00 0.00 0.00 44 1013.3
20260905041349 30 235 0.0 0.0 0.00 0.00 0.00 43 1013.5
20260905040844 30 234 0.0 0.0 0.00 0.00 0.00 43 1013.4
20260905040343 30 230 0.0 0.0 0.00 0.00 0.00 41 1013.4
20260905035842 30 230 0.0 0.0 0.00 0.00 0.00 40 1013.3
20260905035338 30 229 0.0 0.0 0.00 0.00 0.00 40 1013.2
20260905034834 30 229 0.0 0.0 0.00 0.00 0.00 40 1013.4
20260905034330 30 272 0.0 0.0 0.00 0.00 0.00 40 1013.2
20260905033828 30 273 0.0 0.0 0.00 0.00 0.00 39 1013.2
20260905033324 30 313 0.0 0.0 0.00 0.00 0.00 39 1013.3
20260905032823 30 256 3.2 3.2 0.00 0.00 0.00 40 1012.9
20260905032319 30 311 0.0 0.0 0.00 0.00 0.00 39 1013.0
20260905031814 30 316 0.0 0.0 0.00 0.00 0.00 39 1013.0
20260905031310 30 316 0.0 0.0 0.00 0.00 0.00 39 1012.9
20260905030805 30 316 0.0 0.0 0.00 0.00 0.00 37 1012.9
20260905030300 30 316 0.0 0.0 0.00 0.00 0.00 37 1012.7
20260905025759 31 316 0.0 0.0 0.00 0.00 0.00 36 1012.5
20260905025255 31 316 0.0 0.0 0.00 0.00 0.00 36 1012.7
20260905024751 31 316 0.0 0.0 0.00 0.00 0.00 35 1012.6
20260905024246 31 316 0.0 0.0 0.00 0.00 0.00 34 1012.5
20260905023741 31 316 0.0 0.0 0.00 0.00 0.00 34 1012.2
20260905023236 31 316 0.0 0.0 0.00 0.00 0.00 34 1011.9
20260905022735 31 317 0.0 0.0 0.00 0.00 0.00 34 1012.0
20260905022231 31 325 0.0 0.0 0.00 0.00 0.00 34 1011.9
20260905021725 31 325 0.0 0.0 0.00 0.00 0.00 34 1012.0
20260905021220 31 325 0.0 0.0 0.00 0.00 0.00 33 1012.0
20260905020715 31 325 0.0 0.0 0.00 0.00 0.00 33 1011.8
20260905020210 31 334 0.0 0.0 0.00 0.00 0.00 33 1012.0
20260905015709 32 339 0.0 0.0 0.00 0.00 0.00 32 1011.9
20260905015209 32 319 0.0 0.0 0.00 0.00 0.00 32 1011.9
20260905014707 32 11 0.0 0.0 0.00 0.00 0.00 32 1011.8
20260905014203 32 11 1.6 1.6 0.00 0.00 0.00 31 1011.8
20260905013659 32 3 1.6 1.6 0.00 0.00 0.00 30 1011.6
20260905013154 32 28 0.0 0.0 0.00 0.00 0.00 30 1011.6
20260905012650 33 18 1.6 0.0 0.00 0.00 0.00 30 1011.8
20260905012146 33 305 1.6 1.6 0.00 0.00 0.00 29 1011.8
20260905011642 33 329 1.6 3.2 0.00 0.00 0.00 29 1011.8
20260905011138 33 265 3.2 3.2 0.00 0.00 0.00 28 1011.6
20260905010632 33 335 1.6 3.2 0.00 0.00 0.00 29 1011.5
20260905010128 34 14 1.6 1.6 0.00 0.00 0.00 29 1011.6
20260905005624 35 359 3.2 3.2 0.00 0.00 0.00 29 1011.4
20260905005120 35 355 4.8 8.0 0.00 0.00 0.00 28 1011.8
20260905004619 35 286 3.2 3.2 0.00 0.00 0.00 28 1011.4
20260905004114 35 277 3.2 3.2 0.00 0.00 0.00 29 1011.4
20260905003610 35 285 4.8 12.9 0.00 0.00 0.00 29 1011.5
20260905003106 35 309 1.6 1.6 0.00 0.00 0.00 29 1011.6
20260905002601 35 342 3.2 3.2 0.00 0.00 0.00 29 1011.3
20260905002056 35 14 3.2 4.8 0.00 0.00 0.00 29 1011.3
20260905001551 35 338 0.0 0.0 0.00 0.00 0.00 31 1011.3
20260905001050 35 57 1.6 1.6 0.00 0.00 0.00 30 1011.3
20260905000546 34 312 1.6 1.6 0.00 0.00 0.00 32 1011.2
20260905000042 35 332 1.6 1.6 0.00 0.00 0.00 32 1011.3
20260904235537 35 23 3.2 3.2 0.00 0.00 0.00 30 1011.3
20260904235036 35 317 1.6 3.2 0.00 0.00 0.00 30 1011.2
20260904234536 35 356 3.2 3.2 0.00 0.00 0.00 30 1011.4
20260904234033 35 265 4.8 4.8 0.00 0.00 0.00 30 1011.3
20260904233527 35 27 1.6 1.6 0.00 0.00 0.00 29 1011.5
20260904233024 35 53 1.6 1.6 0.00 0.00 0.00 30 1011.3
20260904232520 36 334 1.6 1.6 0.00 0.00 0.00 29 1011.3
20260904232016 35 324 4.8 8.0 0.00 0.00 0.00 28 1011.5
20260904231512 36 333 4.8 8.0 0.00 0.00 0.00 28 1011.5
20260904231006 36 320 6.4 8.0 0.00 0.00 0.00 27 1011.4
20260904230505 36 342 4.8 11.3 0.00 0.00 0.00 27 1011.7
20260904230001 36 234 8.0 9.7 0.00 0.00 0.00 27 1011.4
20260904225459 36 317 9.7 14.5 0.00 0.00 0.00 26 1011.5
20260904224952 36 303 3.2 4.8 0.00 0.00 0.00 28 1011.6
20260904224448 36 250 4.8 4.8 0.00 0.00 0.00 28 1011.5
20260904223948 36 277 6.4 9.7 0.00 0.00 0.00 27 1011.7
20260904223447 36 346 6.4 8.0 0.00 0.00 0.00 28 1011.8
20260904222943 36 281 4.8 4.8 0.00 0.00 0.00 29 1011.6
20260904222439 36 305 4.8 8.0 0.00 0.00 0.00 29 1011.9
20260904221938 36 287 1.6 1.6 0.00 0.00 0.00 30 1011.4
20260904221433 36 333 3.2 1.6 0.00 0.00 0.00 29 1011.8
20260904220929 36 309 3.2 3.2 0.00 0.00 0.00 31 1011.9
20260904220428 36 284 1.6 1.6 0.00 0.00 0.00 32 1012.0
20260904215923 36 258 8.0 9.7 0.00 0.00 0.00 30 1011.9
20260904215418 36 256 8.0 12.9 0.00 0.00 0.00 31 1012.0
20260904214914 36 300 4.8 4.8 0.00 0.00 0.00 32 1012.0
20260904214410 35 318 6.4 11.3 0.00 0.00 0.00 32 1012.2
20260904213909 35 286 6.4 8.0 0.00 0.00 0.00 33 1012.5
20260904213403 35 275 1.6 1.6 0.00 0.00 0.00 33 1012.2
20260904212859 36 265 1.6 3.2 0.00 0.00 0.00 31 1012.5
20260904212358 36 259 3.2 3.2 0.00 0.00 0.00 30 1012.0
20260904211854 36 197 1.6 3.2 0.00 0.00 0.00 30 1012.4
20260904211349 36 266 4.8 4.8 0.00 0.00 0.00 32 1012.4
20260904210844 36 284 3.2 3.2 0.00 0.00 0.00 29 1012.5
20260904210344 36 336 3.2 3.2 0.00 0.00 0.00 31 1012.6
20260904205840 36 267 4.8 4.8 0.00 0.00 0.00 29 1012.4
20260904205335 36 320 3.2 3.2 0.00 0.00 0.00 31 1012.7
20260904204832 35 298 3.2 3.2 0.00 0.00 0.00 31 1012.5
20260904204328 35 56 4.8 4.8 0.00 0.00 0.00 32 1012.5
20260904203824 35 311 3.2 3.2 0.00 0.00 0.00 32 1012.6
20260904203320 35 6 4.8 8.0 0.00 0.00 0.00 31 1013.0
20260904202815 35 358 6.4 8.0 0.00 0.00 0.00 30 1013.1
20260904202311 35 163 0.0 0.0 0.00 0.00 0.00 30 1013.0
20260904201807 35 63 3.2 3.2 0.00 0.00 0.00 32 1013.3
20260904201301 35 292 8.0 9.7 0.00 0.00 0.00 31 1013.2
20260904200756 35 317 1.6 1.6 0.00 0.00 0.00 30 1013.2
20260904200250 35 53 4.8 4.8 0.00 0.00 0.00 32 1013.4
20260904195749 35 314 4.8 8.0 0.00 0.00 0.00 33 1013.5
20260904195248 34 78 0.0 0.0 0.00 0.00 0.00 36 1013.3
20260904194743 34 1 3.2 3.2 0.00 0.00 0.00 36 1013.8
20260904194242 33 234 4.8 4.8 0.00 0.00 0.00 37 1013.5
20260904193738 34 221 3.2 4.8 0.00 0.00 0.00 37 1013.8
20260904193233 34 227 1.6 1.6 0.00 0.00 0.00 37 1013.9
20260904192728 33 97 0.0 0.0 0.00 0.00 0.00 37 1013.5
20260904192224 33 158 1.6 3.2 0.00 0.00 0.00 38 1014.1
20260904191720 33 240 8.0 11.3 0.00 0.00 0.00 38 1014.0
20260904191216 34 30 1.6 1.6 0.00 0.00 0.00 37 1014.2
20260904190713 34 252 6.4 8.0 0.00 0.00 0.00 37 1014.4
20260904190208 33 273 3.2 3.2 0.00 0.00 0.00 38 1014.6
20260904185705 33 138 1.6 1.6 0.00 0.00 0.00 40 1014.3
20260904185159 33 216 4.8 8.0 0.00 0.00 0.00 40 1014.3
20260904184658 33 179 1.6 1.6 0.00 0.00 0.00 40 1014.7
20260904184154 33 208 8.0 9.7 0.00 0.00 0.00 40 1014.4
20260904183650 33 198 6.4 9.7 0.00 0.00 0.00 40 1014.6
20260904183149 33 156 1.6 3.2 0.00 0.00 0.00 43 1014.8
20260904182645 33 229 3.2 3.2 0.00 0.00 0.00 42 1014.9
20260904182139 33 199 4.8 8.0 0.00 0.00 0.00 42 1014.7
20260904181635 32 190 0.0 1.6 0.00 0.00 0.00 44 1014.7
20260904181130 32 124 0.0 0.0 0.00 0.00 0.00 43 1014.8
20260904180625 32 87 1.6 1.6 0.00 0.00 0.00 44 1014.9
20260904180120 32 301 4.8 4.8 0.00 0.00 0.00 44 1014.9
20260904175619 32 136 0.0 0.0 0.00 0.00 0.00 45 1015.2
20260904175118 32 159 3.2 3.2 0.00 0.00 0.00 45 1015.3
20260904174613 32 169 0.0 0.0 0.00 0.00 0.00 47 1015.2
20260904174109 31 226 4.8 3.2 0.00 0.00 0.00 46 1015.4
20260904173609 31 246 3.2 4.8 0.00 0.00 0.00 47 1015.4
20260904173105 31 263 6.4 8.0 0.00 0.00 0.00 47 1015.5
20260904172601 31 125 1.6 1.6 0.00 0.00 0.00 47 1015.6
20260904172100 31 238 3.2 3.2 0.00 0.00 0.00 47 1015.8
20260904171555 31 321 4.8 8.0 0.00 0.00 0.00 49 1015.5
20260904171051 31 100 3.2 3.2 0.00 0.00 0.00 49 1015.8
20260904170546 31 197 1.6 1.6 0.00 0.00 0.00 48 1015.8
20260904170043 31 200 4.8 4.8 0.00 0.00 0.00 49 1015.7
20260904165541 31 181 9.7 11.3 0.00 0.00 0.00 48 1015.6
20260904165040 31 254 6.4 8.0 0.00 0.00 0.00 49 1015.4
20260904164536 31 119 4.8 3.2 0.00 0.00 0.00 49 1015.6
20260904164032 31 127 1.6 3.2 0.00 0.00 0.00 50 1015.4
20260904163531 30 89 1.6 1.6 0.00 0.00 0.00 54 1015.4
20260904163026 30 210 6.4 8.0 0.00 0.00 0.00 52 1015.6
20260904162521 30 196 8.0 11.3 0.00 0.00 0.00 52 1015.6
20260904162016 30 215 4.8 3.2 0.00 0.00 0.00 53 1015.5
20260904161511 30 225 1.6 1.6 0.00 0.00 0.00 55 1015.5
20260904161007 29 165 1.6 1.6 0.00 0.00 0.00 56 1015.6
20260904160501 29 138 3.2 4.8 0.00 0.00 0.00 55 1015.5
20260904155956 29 87 0.0 0.0 0.00 0.00 0.00 55 1015.6
20260904155451 29 186 0.0 1.6 0.00 0.00 0.00 55 1015.5
20260904154949 28 94 1.6 1.6 0.00 0.00 0.00 58 1015.6
20260904154444 28 241 0.0 0.0 0.00 0.00 0.00 60 1015.5
20260904153939 28 235 4.8 3.2 0.00 0.00 0.00 58 1015.7
20260904153434 28 167 1.6 1.6 0.00 0.00 0.00 58 1015.4
20260904152931 28 180 3.2 4.8 0.00 0.00 0.00 57 1015.4
20260904152426 29 210 1.6 3.2 0.00 0.00 0.00 56 1015.7
20260904151925 28 157 4.8 4.8 0.00 0.00 0.00 56 1015.4
20260904151421 28 259 1.6 1.6 0.00 0.00 0.00 57 1015.4
20260904150915 28 243 4.8 4.8 0.00 0.00 0.00 57 1015.3
20260904150410 28 178 1.6 3.2 0.00 0.00 0.00 58 1015.4
20260904145908 28 161 1.6 1.6 0.00 0.00 0.00 57 1015.3
20260904145404 28 125 0.0 0.0 0.00 0.00 0.00 58 1015.4
20260904144900 28 189 3.2 3.2 0.00 0.00 0.00 58 1015.4
20260904144355 28 102 0.0 0.0 0.00 0.00 0.00 58 1015.4
20260904143851 28 102 1.6 1.6 0.00 0.00 0.00 58 1015.2
20260904143348 28 102 3.2 3.2 0.00 0.00 0.00 58 1015.2
20260904142843 28 108 0.0 0.0 0.00 0.00 0.00 60 1015.5
20260904142339 27 108 0.0 0.0 0.00 0.00 0.00 60 1015.2
20260904141833 27 110 0.0 0.0 0.00 0.00 0.00 60 1015.2
20260904141329 27 111 0.0 0.0 0.00 0.00 0.00 62 1015.2
20260904140825 26 114 0.0 0.0 0.00 0.00 0.00 64 1014.9
20260904140320 26 114 0.0 0.0 0.00 0.00 0.00 66 1015.2
20260904135819 25 121 0.0 0.0 0.00 0.00 0.00 67 1015.0
20260904135314 25 122 0.0 0.0 0.00 0.00 0.00 67 1015.0
20260904134810 25 128 0.0 0.0 0.00 0.00 0.00 69 1014.7
20260904134310 25 128 0.0 0.0 0.00 0.00 0.00 69 1014.8
20260904133804 25 128 1.6 1.6 0.00 0.00 0.00 69 1014.6
20260904133300 25 132 0.0 0.0 0.00 0.00 0.00 69 1014.4
20260904132800 25 185 1.6 1.6 0.00 0.00 0.00 70 1014.5
20260904132255 24 144 1.6 1.6 0.00 0.00 0.00 70 1014.5
20260904131754 24 133 1.6 1.6 0.00 0.00 0.00 70 1014.4
20260904131250 25 133 0.0 0.0 0.00 0.00 0.00 70 1014.3
20260904130750 25 126 0.0 0.0 0.00 0.00 0.00 69 1014.1
20260904130249 25 169 1.6 1.6 0.00 0.00 0.00 69 1014.0
20260904125746 25 172 1.6 1.6 0.00 0.00 0.00 69 1014.1
20260904125241 25 183 1.6 1.6 0.00 0.00 0.00 69 1013.8
20260904124740 25 177 1.6 1.6 0.00 0.00 0.00 69 1013.6
20260904124237 25 147 0.0 0.0 0.00 0.00 0.00 69 1013.5
20260904123732 25 180 1.6 1.6 0.00 0.00 0.00 69 1013.8
20260904123227 25 205 1.6 1.6 0.00 0.00 0.00 69 1013.5
20260904122722 25 191 1.6 1.6 0.00 0.00 0.00 70 1013.5
20260904122216 25 183 0.0 0.0 0.00 0.00 0.00 72 1013.2
20260904121712 25 183 0.0 0.0 0.00 0.00 0.00 72 1013.4
20260904121207 25 183 0.0 0.0 0.00 0.00 0.00 71 1013.4
20260904120703 25 183 0.0 0.0 0.00 0.00 0.00 71 1013.4
20260904120159 25 184 0.0 0.0 0.00 0.00 0.00 70 1013.3
20260904115655 25 184 0.0 0.0 0.00 0.00 0.00 69 1013.3
20260904115149 25 184 0.0 0.0 0.00 0.00 0.00 69 1013.2
20260904114644 25 184 0.0 0.0 0.00 0.00 0.00 69 1013.3
20260904114143 25 184 0.0 0.0 0.00 0.00 0.00 68 1013.3
20260904113638 25 184 0.0 0.0 0.00 0.00 0.00 68 1013.3
20260904113137 25 184 0.0 0.0 0.00 0.00 0.00 67 1013.2
20260904112633 26 184 0.0 0.0 0.00 0.00 0.00 66 1013.3
20260904112129 26 184 1.6 1.6 0.00 0.00 0.00 65 1013.3
20260904111624 26 181 0.0 0.0 0.00 0.00 0.00 65 1013.3
20260904111119 26 178 1.6 0.0 0.00 0.00 0.00 65 1013.3
20260904110615 26 136 1.6 1.6 0.00 0.00 0.00 67 1013.3
20260904110115 26 136 0.0 0.0 0.00 0.00 0.00 67 1013.4
20260904105615 26 136 0.0 0.0 0.00 0.00 0.00 67 1013.4
20260904105109 26 91 0.0 0.0 0.00 0.00 0.00 67 1013.4
20260904104605 26 91 0.0 0.0 0.00 0.00 0.00 67 1013.4
20260904104100 26 91 0.0 0.0 0.00 0.00 0.00 67 1013.4
20260904103556 26 91 0.0 0.0 0.00 0.00 0.00 67 1013.6
20260904103052 26 91 0.0 0.0 0.00 0.00 0.00 67 1013.3
20260904102548 26 91 0.0 0.0 0.00 0.00 0.00 67 1013.4
20260904102043 25 103 1.6 1.6 0.00 0.00 0.00 68 1013.2
20260904101539 25 103 0.0 0.0 0.00 0.00 0.00 68 1013.5
20260904101034 25 103 0.0 0.0 0.00 0.00 0.00 68 1013.3
20260904100530 25 103 0.0 0.0 0.00 0.00 0.00 68 1013.3
20260904100025 25 103 0.0 0.0 0.00 0.00 0.00 68 1013.3
20260904095520 25 103 0.0 0.0 0.00 0.00 0.00 67 1013.2
20260904095015 25 103 0.0 0.0 0.00 0.00 0.00 67 1013.4
20260904094510 25 103 1.6 1.6 0.00 0.00 0.00 67 1013.3
20260904094005 25 105 0.0 0.0 0.00 0.00 0.00 66 1013.2
20260904093502 26 105 0.0 0.0 0.00 0.00 0.00 66 1013.2
20260904092956 26 107 0.0 0.0 0.00 0.00 0.00 65 1013.2
20260904092453 26 105 1.6 1.6 0.00 0.00 0.00 66 1013.2
20260904091949 25 92 0.0 0.0 0.00 0.00 0.00 66 1013.1
20260904091445 25 85 0.0 0.0 0.00 0.00 0.00 67 1013.1
20260904090944 25 85 0.0 0.0 0.00 0.00 0.00 66 1013.3
20260904090440 25 85 1.6 1.6 0.00 0.00 0.00 66 1013.1
20260904085935 26 84 0.0 0.0 0.00 0.00 0.00 66 1013.4
20260904085430 26 86 1.6 1.6 0.00 0.00 0.00 66 1013.2
20260904084925 25 87 1.6 1.6 0.00 0.00 0.00 66 1013.1
20260904084421 26 91 0.0 0.0 0.00 0.00 0.00 66 1013.2
20260904083916 25 120 1.6 1.6 0.00 0.00 0.00 67 1013.1
20260904083413 25 126 0.0 0.0 0.00 0.00 0.00 67 1013.2
20260904082909 26 126 0.0 0.0 0.00 0.00 0.00 67 1013.3
20260904082408 25 126 0.0 0.0 0.00 0.00 0.00 66 1013.2
20260904081904 26 126 0.0 0.0 0.00 0.00 0.00 66 1013.3
20260904081359 26 126 0.0 0.0 0.00 0.00 0.00 66 1013.3
20260904080855 26 126 0.0 0.0 0.00 0.00 0.00 65 1013.3
20260904080350 26 126 0.0 0.0 0.00 0.00 0.00 65 1013.4
20260904075846 26 126 0.0 0.0 0.00 0.00 0.00 66 1013.3
20260904075342 26 126 0.0 0.0 0.00 0.00 0.00 66 1013.4
20260904074840 26 126 0.0 0.0 0.00 0.00 0.00 66 1013.3
20260904074335 26 125 0.0 0.0 0.00 0.00 0.00 65 1013.3
20260904073831 26 125 0.0 0.0 0.00 0.00 0.00 65 1013.3
20260904073326 26 126 0.0 0.0 0.00 0.00 0.00 65 1013.3
20260904072822 26 126 0.0 0.0 0.00 0.00 0.00 65 1013.2
20260904072321 26 126 0.0 0.0 0.00 0.00 0.00 64 1013.2
20260904071817 26 126 0.0 0.0 0.00 0.00 0.00 63 1013.5
20260904071312 26 126 0.0 0.0 0.00 0.00 0.00 63 1013.5
20260904070807 27 127 1.6 1.6 0.00 0.00 0.00 62 1013.4
20260904070306 27 137 1.6 1.6 0.00 0.00 0.00 61 1013.4
20260904065801 27 145 1.6 0.0 0.00 0.00 0.00 60 1013.5
20260904065257 27 186 0.0 0.0 0.00 0.00 0.00 60 1013.4
20260904064757 27 201 0.0 0.0 0.00 0.00 0.00 60 1013.5
20260904064253 27 201 0.0 0.0 0.00 0.00 0.00 60 1013.5
20260904063749 27 195 1.6 1.6 0.00 0.00 0.00 59 1013.4
20260904063244 27 220 3.2 3.2 0.00 0.00 0.00 59 1013.5
20260904062740 27 196 1.6 1.6 0.00 0.00 0.00 59 1013.6
20260904062236 27 241 4.8 4.8 0.00 0.00 0.00 59 1013.5